This demonstration page uses our WeatherBlox Daily Observations layout. Learn more.

Left ArrowRight Arrow

39.01783, -85.05884

Hourly Observations for February 15, 2016

Temp ( °F °C ) Dew Point ( °F °C ) Humidity (%) Winds ( mph kmh ) Pressure ( in mb ) Visibility ( mi km ) Precip ( " mm )
12:52 am 00:52 Cloudy 22 -5.6 18 -7.8 85 85 SSE 8 13 30.09 1019 10 16 0.00 0.00
1:20 am 01:20 Cloudy 21 -6 19 -7 93 93 SSE 9 15 30.12 1020 10 16 0.00 0.00
1:39 am 01:39 Cloudy with Light Freezing Drizzle 21 -6 19 -7 93 93 SSE 8 13 30.12 1020 9 14 0.00 0.03
1:52 am 01:52 Cloudy with Light Freezing Drizzle 22 -5.6 19 -7.2 89 89 SE 8 13 30.08 1019 5 8 0.00 0.03
2:52 am 02:52 Cloudy with Light Freezing Drizzle 22 -5.6 20 -6.7 92 92 SE 9 15 30.05 1018 7 11 0.00 0.03
3:04 am 03:04 Cloudy with Light Freezing Drizzle 21 -6 19 -7 93 93 SE 8 13 30.09 1019 2 3 0.00 0.00
3:32 am 03:32 Cloudy with Light Freezing Drizzle 21 -6 21 -6 100 100 SE 7 11 30.06 1018 2 2 0.00 0.03
3:52 am 03:52 Cloudy with Light Freezing Drizzle 23 -5 21 -6.1 92 92 SE 7 11 30.03 1017 2 2 0.00 0.03
4:33 am 04:33 Cloudy with Light Freezing Drizzle 25 -4 21 -6 86 86 SE 8 13 30.03 1017 1 2 0.00 0.03
4:45 am 04:45 Cloudy with Light Freezing Drizzle 25 -4 23 -5 93 93 SE 6 9 30.03 1017 1 1 0.00 0.03
4:52 am 04:52 Cloudy with Light Freezing Drizzle 24 -4.4 23 -5 96 96 SE 6 9 30.01 1016 1 1 0.00 0.03
5:21 am 05:21 Cloudy with Light Freezing Drizzle 25 -4 23 -5 93 93 SE 6 9 30.03 1017 1 2 0.00 0.03
5:52 am 05:52 Cloudy with Light Freezing Drizzle 25 -3.9 24 -4.4 96 96 S 3 6 30.02 1017 1 1 0.00 0.03
6:52 am 06:52 Cloudy with Light Freezing Drizzle 27 -2.8 26 -3.3 96 96 SSE 6 9 30.00 1016 1 1 0.00 0.03
7:43 am 07:43 Cloudy with Light Freezing Drizzle 28 -2 27 -3 93 93 SSE 5 7 30.06 1018 1 1 0.00 0.03
7:50 am 07:50 Cloudy with Mist and Fog 28 -2 27 -3 93 93 SSE 5 7 30.06 1018 1 1 0.00 0.03
7:52 am 07:52 Cloudy with Mist and Fog 28 -2.2 27 -2.8 96 96 SSE 5 7 30.01 1016 1 1 0.00 0.03
8:52 am 08:52 Cloudy with Mist and Fog 29 -1.7 28 -2.2 96 96 S 5 7 30.01 1016 1 1 0.00 0.00
9:14 am 09:14 Cloudy with Mist and Fog 30 -1 28 -2 93 93 S 5 7 30.03 1017 1 2 0.00 0.00
9:52 am 09:52 Cloudy with Mist and Fog 32 0 31 -0.6 96 96 S 7 11 30.01 1016 1 2 0.00 0.00
10:52 am 10:52 Cloudy with Drizzle 33 0.6 32 0 96 96 S 6 9 29.98 1015 1 2 0.00 0.03
11:52 am 11:52 Cloudy with Drizzle 33 0.6 32 0 96 96 S 9 15 29.96 1015 1 1 0.00 0.03
12:52 pm 12:52 Cloudy with Mist and Fog 35 1.7 33 0.6 93 93 S 8 13 29.94 1014 1 1 0.00 0.03
1:07 pm 13:07 Cloudy with Mist and Fog 36 2 34 1 93 93 S 8 13 29.94 1014 2 3 0.00 0.00
1:52 pm 13:52 Cloudy with Mist and Fog 36 2.2 34 1.1 93 93 S 6 9 29.90 1013 2 3 0.00 0.00
2:52 pm 14:52 Cloudy with Mist and Fog 36 2.2 34 1.1 93 93 S 6 9 29.88 1012 2 3 0.00 0.00
2:57 pm 14:57 Cloudy with Mist and Fog 36 2 34 1 93 93 S 6 9 29.91 1013 1 1 0.00 0.00
3:38 pm 15:38 Cloudy with Mist and Fog 36 2 36 2 100 100 S 5 7 29.88 1012 0 0 0.00 0.00
3:40 pm 15:40 Cloudy with Mist and Fog 36 2 36 2 100 100 S 5 7 29.88 1012 0 0 0.00 0.00
3:52 pm 15:52 Cloudy with Fog 36 2.2 35 1.7 97 97 S 3 6 29.87 1012 0 0 0.00 0.00
4:36 pm 16:36 Mostly Cloudy with Fog 36 2 36 2 100 100 SSE 3 6 29.85 1011 0 0 0.00 0.00
4:52 pm 16:52 Mostly Cloudy with Fog 36 2.2 35 1.7 97 97 Calm 29.85 1011 0 0 0.00 0.00
5:27 pm 17:27 Mostly Cloudy with Fog 36 2 36 2 100 100 SE 3 6 29.85 1011 1 2 0.00 0.00
5:52 pm 17:52 Mostly Cloudy with Fog 35 1.7 34 1.1 96 96 ENE 3 6 29.84 1011 1 2 0.00 0.00
6:52 pm 18:52 Mostly Cloudy with Fog 35 1.7 34 1.1 96 96 NNE 6 9 29.84 1010 0 0 0.00 0.00
7:52 pm 19:52 Mostly Cloudy with Fog 35 1.7 34 1.1 96 96 NNE 3 6 29.84 1011 0 0 0.00 0.00
8:52 pm 20:52 Mostly Cloudy with Drizzle 35 1.7 34 1.1 96 96 NE 5 7 29.83 1010 0 0 0.00 0.03
9:16 pm 21:16 Mostly Cloudy with Drizzle 36 2 34 1 93 93 ENE 5 7 29.83 1010 0 0 0.00 0.00
9:52 pm 21:52 Mostly Cloudy with Light Rain 34 1.1 34 1.1 100 100 N 3 6 29.82 1010 1 2 0.00 0.03
10:15 pm 22:15 Mostly Cloudy with Light Rain 34 1 34 1 100 100 N 5 7 29.83 1010 0 0 0.00 0.03
10:22 pm 22:22 Mostly Cloudy with Light Rain 34 1 34 1 100 100 N 5 7 29.83 1010 0 0 0.00 0.00
10:52 pm 22:52 Mostly Cloudy with Fog 34 1.1 33 0.6 97 97 N 5 7 29.80 1009 1 2 0.00 0.03
11:35 pm 23:35 Mostly Cloudy with Light Rain 34 1 34 1 100 100 NNE 3 6 29.80 1009 0 0 0.00 0.03
11:52 pm 23:52 Mostly Cloudy with Light Rain 34 1.1 33 0.6 97 97 NNE 3 6 29.77 1008 0 0 0.00 0.03

Powered by AerisWeather